DELTA 1 DEB, 12647

Orbit data source: Space-Track

DELTA 1 DEB, 12647 is space debris in LEO originally from a launch on Thu, 29 Jul 1976 UTC launched from the Air Force Western Test Range (AFWTR). Debris objects in space refer to the collection of defunct objects orbiting the Earth. Examples of debris include non-operational satellites, rocket bodies, and fragments generated from explosions, collisions, or faulty payload assembly.

Loading next visibility...
Identifier
12647, 1976-077EA
Orbit
LEO
Country
Flag of USUS
Related business
Manufacturer
Unknown
Mission
Spacecraft
Bus & Motor
Unknown
Mass
Unknown
Launch date (UTC)
1976-07-29 (49 years ago)
Launch vehicle
Unknown
Launch site
Air Force Western Test Range (AFWTR)
Object type
Payload
Rocket body
Debris
Shape & HBR
Unknown shape, 0.1 m
Radar Cross Section
Small (<0.1 m²)

Expand to show TLE details & history
Last TLE update: 2 days ago

TLE from 2 days ago
0 DELTA 1 DEB
1 12647U 76077EA  25351.23825396  .00000196  00000-0  26888-2 0  9991
2 12647 100.6700  99.2666 0389926 190.9835 199.2309 11.86719914 66345
Epoch: 2025-12-17T05:43Z
TLE epoch observation values (Epoch: 2025-12-17T05:43:05.142Z)
Latitude
28.30199°
Longitude
-78.41216°
Altitude
2,044.272 km
Speed
6.754 km/s
True Right ascension
06h 13m 52s
True Declination
28° 10' 50"
Sunlit
Object was in full shadow at epoch
Visualization orbit readout
Latitude
Unknown
Longitude
Unknown
Altitude
Unknown
Speed
Unknown
Apparent Right ascension
Unknown
Apparent Declination
Unknown
Sunlit
N/A
Visualization observer readout
Local Sidereal Time
07:48:46
Azimuth
Unknown
Elevation
Unknown
Doppler factor
Unknown
Orbital elements
Apogee altitude
2,054.925 km
Perigee altitude
1,421.952 km
Semi-major axis
8,116.576 km
Eccentricity
0.03899
Inclination
100.67°
RAAN
99.2666°
Arg. of periapsis
190.9835°
True anomaly
197.82417°
Mean anomaly
199.2309°
Eccentric anomaly
198.52122°
Mean motion
2.96814 °/min
Orbital period
121.29 mins
BSTAR
0.0026888
Loading maneuver chart data...
Computing Atmospheric mass density...
Loading historical data...
Loading historical data...
Loading historical data...
Loading historical data...
Loading historical data...
Loading historical data...
Loading historical data...

Documentation

Showing up to 5 results
|